Location: Mococo
(38.0255°N, 122.1161°W)
Time: 07:56:09
(UTC+00:00)

Cosmos 1025 Rocket - Pass Details

Date: 25 May 2026
Orbit: 587 x 608 km, 82.5° (Epoch: 10 June)

Event Time Altitude Azimuth Distance (km) Brightness Sun altitude
Rises 11:55:11 0° 137° (SE) 2,818 6.5 -10.1°
Reaches altitude 10° 11:58:45 10° 105° (ESE) 1,929 6.2 -9.5°
Maximum altitude 12:00:16 12° 85° (E) 1,823 6.5 -9.3°
Drops below altitude 10° 12:01:47 10° 64° (ENE) 1,939 7.2 -9.0°
Sets 12:05:23 0° 32° (NNE) 2,854 7.9 -8.5°
